Location: Julian California
(33.0790°N, 116.6010°W)
Time: 05:43:26
(UTC-07:00)

COSMOS 2455 - Pass Details

Date: 19 May 2017
Orbit: 902 x 907 km, 67.1° (Epoch: 22 July)

Event Time Altitude Azimuth Distance (km) Brightness Sun altitude
Rises 22:22:33 0° 327° (NNW) 3,534 7.2 -27.2°
Reaches altitude 10° 22:25:08 10° 322° (NW) 2,589 6.2 -27.5°
Maximum altitude 22:30:51 48° 250° (WSW) 1,174 3.4 -28.2°
Enters shadow 22:31:34 45° 229° (SW) 1,207 3.4 -28.3°
